Lapeer, MI

9:36 PM EST on February 21, 2017 (GMT -0500)
Lapeer

Weather History for KD95 - March, 2014

Change the Weather History Date:

Tuesday, March 4, 2014

  Actual Average (KFNT) Record (KFNT)
Temperature  
Mean Temperature 7 °F -  
Max Temperature 18 °F 40 °F 63 °F (1983)
Min Temperature -4 °F 23 °F -2 °F (1978)
Degree Days  
Heating Degree Days 58    
Moisture  
Dew Point 2 °F    
Average Humidity 65    
Maximum Humidity 83    
Minimum Humidity 49    
Precipitation  
Precipitation 0.00 in - - ()
Sea Level Pressure  
Sea Level Pressure 30.26 in    
Wind  
Wind Speed 2 mph (SW)    
Max Wind Speed 9 mph    
Max Gust Speed -    
Visibility 10 miles    
Events Snow    
Averages and records for this station are not official NWS values.
T = Trace of Precipitation, MM = Missing Value Source: NWS Daily Summary

Daily Weather History Graph

Daily Weather History Graph

Search for Another Location

Airport or City:

Trip Planner

Search our weather history database for the weather conditions in past years. The results will help you decide how hot, cold, wet, or windy it might be!

Date:

Astronomy

Mar. 04, 2014 Rise Set
Actual Time 7:04 AM EST 6:26 PM EST
Civil Twilight 6:35 AM EST 6:54 PM EST
Nautical Twilight 6:02 AM EST 7:27 PM EST
Astronomical Twilight 5:29 AM EST 8:00 PM EST
Moon 8:43 AM EST (3/4) 10:39 PM EST (3/4)
Length of Visible Light 12h 18m
Length of Day
11h 22m
Waxing Crescent, 14% of the Moon is Illuminated
Mar 4
Waxing Crescent
Mar 8
First Quarter
Mar 16
Full
Mar 23
Last Quarter
Mar 30
New

Hourly Weather History & Observations

Time (EST) Temp. Windchill Dew Point Humidity Pressure Visibility Wind Dir Wind Speed Gust Speed Precip Events Conditions
12:14 AM -4.5 °F - -8.5 °F 83% 30.36 in 10.0 mi Calm Calm - N/A   Clear
12:34 AM -3.5 °F - -7.8 °F 82% 30.36 in 10.0 mi Calm Calm - N/A   Clear
12:54 AM -2.6 °F - -6.7 °F 82% 30.35 in 10.0 mi Calm Calm - N/A   Scattered Clouds
1:14 AM -1.7 °F - -5.8 °F 83% 30.36 in 10.0 mi Calm Calm - N/A   Mostly Cloudy
1:34 AM -0.6 °F - -4.7 °F 83% 30.36 in 10.0 mi Calm Calm - N/A   Mostly Cloudy
1:54 AM 0.3 °F - -4.2 °F 81% 30.35 in 10.0 mi Calm Calm - N/A   Mostly Cloudy
2:14 AM 0.7 °F - -4.0 °F 81% 30.35 in 10.0 mi Calm Calm - N/A   Scattered Clouds
2:34 AM 1.0 °F - -4.0 °F 79% 30.34 in 10.0 mi Calm Calm - N/A   Mostly Cloudy
2:54 AM 1.9 °F - -2.7 °F 81% 30.33 in 10.0 mi Calm Calm - N/A   Overcast
3:14 AM 3.2 °F - -3.6 °F 73% 30.33 in 10.0 mi Calm Calm - N/A   Overcast
3:34 AM 2.1 °F - -3.8 °F 76% 30.32 in 10.0 mi Calm Calm - N/A   Overcast
3:54 AM 1.4 °F - -4.0 °F 78% 30.32 in 10.0 mi Calm Calm - N/A   Mostly Cloudy
4:14 AM 2.7 °F - -3.5 °F 76% 30.31 in 10.0 mi Calm Calm - N/A   Mostly Cloudy
4:34 AM 3.2 °F - -2.4 °F 78% 30.31 in 10.0 mi Calm Calm - N/A   Overcast
4:54 AM 5.0 °F - -3.1 °F 69% 30.31 in 10.0 mi Calm Calm - N/A   Overcast
5:13 AM 5.5 °F - -2.9 °F 68% 30.31 in 10.0 mi Calm Calm - N/A   Overcast
5:34 AM 5.9 °F - -2.7 °F 68% 30.31 in 10.0 mi Calm Calm - N/A   Overcast
5:54 AM 6.3 °F - -2.2 °F 68% 30.31 in 10.0 mi Calm Calm - N/A   Overcast
6:13 AM 6.6 °F -0.3 °F -3.1 °F 64% 30.31 in 10.0 mi SSW 3.5 mph - N/A   Overcast
6:34 AM 6.8 °F -0.1 °F -3.5 °F 63% 30.31 in 10.0 mi SSW 3.5 mph - N/A   Overcast
6:54 AM 6.8 °F - -3.1 °F 64% 30.30 in 10.0 mi Calm Calm - N/A   Overcast
7:13 AM 7.3 °F - -2.9 °F 63% 30.30 in 10.0 mi Calm Calm - N/A   Overcast
7:34 AM 8.2 °F 1.6 °F -3.3 °F 59% 30.31 in 10.0 mi SW 3.5 mph - N/A   Overcast
7:54 AM 8.6 °F -1.3 °F -2.7 °F 60% 30.31 in 10.0 mi SW 5.8 mph - N/A   Overcast
8:14 AM 9.1 °F -1.9 °F -3.1 °F 58% 30.30 in 10.0 mi SW 6.9 mph - N/A   Overcast
8:34 AM 9.3 °F -2.8 °F -2.6 °F 59% 30.30 in 10.0 mi SSW 8.1 mph - N/A   Overcast
8:54 AM 10.0 °F 0.4 °F -2.2 °F 58% 30.30 in 10.0 mi SW 5.8 mph - N/A   Overcast
9:14 AM 10.8 °F -1.1 °F -3.1 °F 54% 30.30 in 10.0 mi WSW 8.1 mph - N/A   Overcast
9:34 AM 11.3 °F -1.3 °F -2.4 °F 54% 30.28 in 10.0 mi SW 9.2 mph - N/A   Overcast
9:54 AM 12.2 °F 1.7 °F -2.0 °F 53% 30.28 in 10.0 mi SSW 6.9 mph - N/A   Overcast
10:14 AM 13.1 °F 1.8 °F -0.9 °F 54% 30.27 in 10.0 mi SW 8.1 mph - N/A   Overcast
10:34 AM 13.8 °F 3.7 °F -0.6 °F 53% 30.26 in 10.0 mi SW 6.9 mph - N/A   Overcast
10:53 AM 14.5 °F 2.7 °F -0.2 °F 52% 30.25 in 10.0 mi SSW 9.2 mph - N/A   Overcast
11:14 AM 15.1 °F 5.2 °F -0.0 °F 51% 30.25 in 10.0 mi SSW 6.9 mph - N/A   Overcast
11:34 AM 16.0 °F 5.3 °F 0.3 °F 50% 30.24 in 10.0 mi SSW 8.1 mph - N/A   Overcast
11:53 AM 16.3 °F 6.7 °F 0.1 °F 49% 30.24 in 10.0 mi SW 6.9 mph - N/A   Overcast
12:14 PM 16.5 °F 6.0 °F 0.3 °F 49% 30.23 in 10.0 mi SSW 8.1 mph - N/A   Overcast
12:34 PM 16.5 °F 9.4 °F 1.6 °F 52% 30.23 in 10.0 mi SW 4.6 mph - N/A   Overcast
12:53 PM 17.1 °F 8.7 °F 1.6 °F 51% 30.23 in 10.0 mi SSW 5.8 mph - N/A   Overcast
1:14 PM 17.6 °F 12.3 °F 1.6 °F 50% 30.22 in 10.0 mi SSW 3.5 mph - N/A   Overcast
1:34 PM 17.6 °F 9.3 °F 1.6 °F 50% 30.21 in 10.0 mi South 5.8 mph - N/A   Overcast
1:53 PM 17.8 °F 12.5 °F 2.3 °F 51% 30.20 in 10.0 mi SW 3.5 mph - N/A   Overcast
2:14 PM 18.3 °F 10.2 °F 3.9 °F 53% 30.20 in 10.0 mi WSW 5.8 mph - N/A   Overcast
2:34 PM 18.1 °F - 4.5 °F 55% 30.21 in 7.0 mi Calm Calm - N/A Snow Light Snow
2:53 PM 17.8 °F 12.5 °F 7.3 °F 64% 30.20 in 10.0 mi West 3.5 mph - N/A Snow Light Snow
3:14 PM 18.0 °F - 6.4 °F 61% 30.20 in 7.0 mi Calm Calm - N/A Snow Light Snow
3:34 PM 18.0 °F - 6.4 °F 61% 30.19 in 10.0 mi Calm Calm - N/A   Overcast
3:53 PM 18.1 °F - 6.6 °F 61% 30.19 in 10.0 mi Calm Calm - N/A   Overcast
4:14 PM 18.9 °F 12.1 °F 6.6 °F 59% 30.19 in 10.0 mi WNW 4.6 mph - N/A   Overcast
4:34 PM 18.5 °F 11.7 °F 5.9 °F 58% 30.19 in 10.0 mi WNW 4.6 mph - N/A   Overcast
4:54 PM 18.5 °F 11.7 °F 6.8 °F 60% 30.19 in 10.0 mi NNW 4.6 mph - N/A   Overcast
5:14 PM 18.3 °F 13.1 °F 6.8 °F 61% 30.19 in 10.0 mi NNW 3.5 mph - N/A   Overcast
5:34 PM 18.5 °F - 6.3 °F 59% 30.19 in 10.0 mi Calm Calm - N/A   Overcast
5:54 PM 18.3 °F - 7.0 °F 61% 30.19 in 10.0 mi Calm Calm - N/A   Overcast
6:14 PM 18.1 °F - 7.3 °F 63% 30.20 in 10.0 mi Calm Calm - N/A   Overcast
6:33 PM 18.0 °F - 6.8 °F 62% 30.19 in 10.0 mi Calm Calm - N/A   Overcast
6:54 PM 17.6 °F - 7.0 °F 63% 30.19 in 10.0 mi Calm Calm - N/A   Overcast
7:14 PM 17.6 °F - 7.5 °F 65% 30.20 in 10.0 mi Calm Calm - N/A   Overcast
7:33 PM 17.4 °F - 8.8 °F 69% 30.20 in 10.0 mi Calm Calm - N/A   Overcast
7:54 PM 17.6 °F - 7.9 °F 66% 30.21 in 10.0 mi Calm Calm - N/A   Overcast
8:14 PM 17.6 °F - 8.1 °F 66% 30.20 in 10.0 mi Calm Calm - N/A   Overcast
8:33 PM 17.4 °F - 8.4 °F 68% 30.21 in 10.0 mi Calm Calm - N/A   Overcast
8:54 PM 16.7 °F - 9.3 °F 73% 30.21 in 10.0 mi Calm Calm - N/A   Overcast
9:14 PM 16.7 °F - 8.8 °F 71% 30.21 in 10.0 mi Calm Calm - N/A   Overcast
9:33 PM 16.5 °F - 9.1 °F 73% 30.22 in 10.0 mi Calm Calm - N/A   Overcast
9:54 PM 16.5 °F - 9.0 °F 72% 30.22 in 10.0 mi Calm Calm - N/A   Overcast
10:14 PM 16.5 °F - 8.8 °F 72% 30.22 in 10.0 mi Calm Calm - N/A   Overcast
10:33 PM 16.5 °F - 8.8 °F 72% 30.22 in 10.0 mi Calm Calm - N/A   Overcast
10:54 PM 16.3 °F - 8.6 °F 72% 30.23 in 10.0 mi Calm Calm - N/A   Overcast
11:14 PM 17.1 °F - 8.6 °F 69% 30.23 in 10.0 mi Calm Calm - N/A   Overcast
11:34 PM 16.0 °F - 9.1 °F 74% 30.23 in 10.0 mi Calm Calm - N/A   Overcast
11:54 PM 15.8 °F - 9.5 °F 76% 30.23 in 10.0 mi Calm Calm - N/A   Overcast